Content
SEND FEEDBACK

Daily
Averages
Monthly
Summary
United States of America

NEW YORK - CENTRAL PARK, NEW YORK


Home > North America > United States > New York
Elevation: 4 meters     Latitude: 40 47N     Longitude: 073 58W

WEATHER
 
SELECT A DAY
Number of Records: 151,145;   Date Range: 11/1/95 - 10/19/14
 
SHARE

PRINT THIS DATA

[ ← Previous Day ]
WEATHER ALMANAC - 18 APRIL, 2013
[ Next Day → ]
[ °F ]   °C
Weather ElementAverageHighLow
Temperature12.6 °C14.4 °C (9:51 am)10.6 °C (4:51 am)
Dewpoint6.4 °C11.7 °C (11:51 pm)1.1 °C (9:51 am)
Humidity68 %97 % (11:51 pm)41 % (9:51 am)
Barometer1024.7 hPa1027.4 hPa (6:51 am)1019.6 hPa (11:51 pm)
Wind Speed10.8 km/h22.2 km/h (3:11 pm)
Wind Gust38.9 km/h (9:51 am)
Weather ElementAverage
Visibility15.1 km
Wind DirectionESE (111.1 °)

Weather ElementTotal
Precipitation0.25 mm
Heating Degree Days5.8 (Base 18.3)
Growing Degree Days2.5 (Base 10)
Averaged from 27 records on 18 April, 2013
WEATHER CONDITIONS BREAKOUT
WIND DIRECTION BREAKOUT
WEATHER BY HOUR - 18 APRIL, 2013
[ °F ]   °C
Local TimeTemperatureDewpointHumidityBarometerVisibilityWind DirectionWind SpeedGust SpeedPrecipitationEventsConditions
1:51 AM12.8 °C2.8 °C51 %1025.7 hPa16.1 kmCalmClear
2:51 AM12.2 °C2.8 °C53 %1026.1 hPa16.1 kmSSE (160°)11.1 km/hClear
3:51 AM11.7 °C3.3 °C57 %1026.4 hPa16.1 kmSE (140°)11.1 km/hMostly Cloudy
4:51 AM10.6 °C4.4 °C66 %1026.8 hPa16.1 kmCalmClear
5:51 AM10.6 °C5 °C68 %1026.8 hPa16.1 kmCalmPartly Cloudy
6:51 AM10.6 °C5 °C68 %1027.4 hPa16.1 kmSE (130°)7.4 km/hClear
7:51 AM11.1 °C5.6 °C69 %1027.4 hPa16.1 kmVariable9.3 km/hClear
8:51 AM13.3 °C2.8 °C49 %1027.1 hPa16.1 kmSE (140°)13 km/h29.6 km/hOvercast
9:51 AM14.4 °C1.1 °C41 %1027.4 hPa16.1 kmSSE (160°)14.8 km/h38.9 km/hOvercast
10:51 AM14.4 °C2.2 °C44 %1027.4 hPa16.1 kmSE (140°)18.5 km/h38.9 km/hOvercast
11:51 AM14.4 °C1.7 °C42 %1027.4 hPa16.1 kmCalmOvercast
12:51 PM13.9 °C3.9 °C51 %1026.8 hPa16.1 kmSouth (170°)13 km/h27.8 km/hOvercast
1:51 PM13.3 °C5 °C57 %1026.1 hPa16.1 kmSouth (170°)14.8 km/h27.8 km/hOvercast
2:51 PM13.9 °C5.6 °C57 %1025.4 hPa16.1 kmSSE (160°)13 km/h35.2 km/hOvercast
3:11 PM13.9 °C6.1 °C59 %1026.1 hPa16.1 kmSSE (160°)22.2 km/h31.5 km/hOvercast
3:51 PM13.3 °C6.7 °C64 %1024.7 hPa16.1 kmSE (140°)16.7 km/h35.2 km/hOvercast
4:51 PM12.2 °C7.2 °C72 %1024 hPa16.1 kmVariable11.1 km/h29.6 km/h0.25 mmOvercast
5:51 PM11.7 °C8.9 °C83 %1023.7 hPa12.9 kmVariable5.6 km/h31.5 km/h0 mmRainLight Rain
6:47 PM12 °C9 °C82 %1023.4 hPa16.1 kmSSE (160°)16.7 km/h25.9 km/h0 mmOvercast
6:51 PM12.2 °C8.9 °C80 %1022.7 hPa16.1 kmSSE (150°)7.4 km/h27.8 km/h0 mmOvercast
7:51 PM12.2 °C9.4 °C83 %1022.4 hPa16.1 kmSSE (160°)13 km/hOvercast
8:51 PM12.8 °C10 °C83 %1022 hPa16.1 kmSouth (180°)11.1 km/hOvercast
9:21 PM12.8 °C10 °C83 %1022.4 hPa16.1 kmSouth (170°)7.4 km/hOvercast
9:51 PM12.2 °C10.6 °C90 %1021.3 hPa14.5 kmSSE (160°)22.2 km/h38.9 km/hOvercast
10:51 PM12.2 °C11.1 °C93 %1020.3 hPa9.7 kmVariable9.3 km/hOvercast
11:07 PM12.2 °C11.1 °C93 %1021 hPa9.7 kmSouth (170°)13 km/hOvercast
11:51 PM12.2 °C11.7 °C97 %1019.6 hPa8 kmSouth (180°)9.3 km/hOvercast
Hourly data recorded from KNYC, located 0 kilometers away from New York - Central Park, New York







STORIES FROM OUR PARTNERS